Location: Cercedilla
(40.7379°N, 4.0638°W)
Time: 07:29:01
(UTC+00:00)

Cosmos 2322 Rocket - Pass Details

Date: 07 June 2020
Orbit: 833 x 850 km, 71.0° (Epoch: 07 July)

Event Time Altitude Azimuth Distance (km) Brightness Sun altitude
Exits shadow 01:29:30 29° 130° (SE) 1,501 3.3 -24.2°
Maximum altitude 01:30:52 32° 104° (ESE) 1,395 3.3 -24.1°
Drops below altitude 10° 01:35:46 10° 43° (NE) 2,449 5.5 -23.8°
Sets 01:38:26 0° 34° (NNE) 3,387 6.7 -23.6°
